Time,TemperatureF,DewpointF,PressureIn,WindDirection,WindDirectionDegrees,WindSpeedMPH,WindSpeedGustMPH,Humidity,HourlyPrecipIn,Conditions,Clouds,dailyrainin,SoftwareType,DateUTC
2013-10-27 00:04:00,49.9,47.4,30.18,East,82,0.0,0.0,91,0.00,,,0.00,WeatherTracker,2013-10-27 07:04:00,
2013-10-27 00:09:00,49.9,47.4,30.19,East,82,0.0,0.0,91,0.00,,,0.00,WeatherTracker,2013-10-27 07:09:00,
2013-10-27 00:14:00,49.9,47.4,30.19,East,82,0.0,0.0,91,0.00,,,0.00,WeatherTracker,2013-10-27 07:14:00,
2013-10-27 00:19:00,49.9,47.4,30.18,East,82,0.0,0.0,91,0.00,,,0.00,WeatherTracker,2013-10-27 07:19:00,
2013-10-27 00:24:00,49.8,47.3,30.18,East,82,0.0,1.0,91,0.00,,,0.00,WeatherTracker,2013-10-27 07:24:00,
2013-10-27 00:29:00,49.8,47.3,30.18,East,82,0.0,1.0,91,0.00,,,0.00,WeatherTracker,2013-10-27 07:29:00,
2013-10-27 00:34:00,49.8,47.0,30.18,East,82,0.0,1.0,90,0.00,,,0.00,WeatherTracker,2013-10-27 07:34:00,
2013-10-27 00:39:00,49.8,47.0,30.18,East,82,0.0,1.0,90,0.00,,,0.00,WeatherTracker,2013-10-27 07:39:00,
2013-10-27 00:44:00,49.8,47.0,30.18,East,82,0.0,1.0,90,0.00,,,0.00,WeatherTracker,2013-10-27 07:44:00,
2013-10-27 00:49:00,49.8,47.0,30.18,East,82,0.0,0.0,90,0.00,,,0.00,WeatherTracker,2013-10-27 07:49:00,
2013-10-27 00:55:00,49.7,46.9,30.17,East,82,0.0,1.0,90,0.00,,,0.00,WeatherTracker,2013-10-27 07:55:00,
2013-10-27 01:00:00,49.7,46.9,30.16,East,82,0.0,1.0,90,0.00,,,0.00,WeatherTracker,2013-10-27 08:00:00,
2013-10-27 01:05:00,49.7,46.9,30.16,SE,128,0.0,4.0,90,0.00,,,0.00,WeatherTracker,2013-10-27 08:05:00,
2013-10-27 01:10:00,49.7,46.9,30.16,SE,135,2.0,5.0,90,0.00,,,0.00,WeatherTracker,2013-10-27 08:10:00,
2013-10-27 01:15:00,49.6,46.8,30.14,SE,145,0.0,7.0,90,0.00,,,0.00,WeatherTracker,2013-10-27 08:15:00,
2013-10-27 01:20:00,49.7,46.6,30.14,South,171,1.0,7.0,89,0.00,,,0.00,WeatherTracker,2013-10-27 08:20:00,
2013-10-27 01:25:00,49.6,46.5,30.15,South,171,0.0,5.0,89,0.00,,,0.00,WeatherTracker,2013-10-27 08:25:00,
2013-10-27 01:30:00,49.6,46.5,30.15,SSE,166,0.0,4.0,89,0.00,,,0.00,WeatherTracker,2013-10-27 08:30:00,
2013-10-27 01:35:00,49.6,46.5,30.13,SSE,166,0.0,2.0,89,0.00,,,0.00,WeatherTracker,2013-10-27 08:35:00,
2013-10-27 01:40:00,49.6,46.5,30.13,SSE,150,0.0,5.0,89,0.00,,,0.00,WeatherTracker,2013-10-27 08:40:00,
2013-10-27 01:45:00,49.6,46.8,30.12,SSE,168,2.0,6.0,90,0.00,,,0.00,WeatherTracker,2013-10-27 08:45:00,
2013-10-27 01:50:00,49.5,46.7,30.13,South,184,0.0,6.0,90,0.00,,,0.00,WeatherTracker,2013-10-27 08:50:00,
2013-10-27 01:55:00,49.5,46.7,30.13,South,183,0.0,6.0,90,0.00,,,0.00,WeatherTracker,2013-10-27 08:55:00,
2013-10-27 02:00:00,49.5,46.7,30.13,South,182,0.0,4.0,90,0.00,,,0.00,WeatherTracker,2013-10-27 09:00:00,
2013-10-27 02:05:00,49.5,46.7,30.12,South,182,1.0,5.0,90,0.00,,,0.00,WeatherTracker,2013-10-27 09:05:00,
2013-10-27 02:10:00,49.5,46.7,30.12,South,187,1.0,5.0,90,0.00,,,0.00,WeatherTracker,2013-10-27 09:10:00,
2013-10-27 02:15:00,49.5,47.0,30.11,South,173,0.0,5.0,91,0.00,,,0.00,WeatherTracker,2013-10-27 09:15:00,
2013-10-27 02:20:00,49.5,46.7,30.10,SSW,198,0.0,7.0,90,0.00,,,0.00,WeatherTracker,2013-10-27 09:20:00,
2013-10-27 02:25:00,49.4,46.6,30.09,South,178,2.0,8.0,90,0.00,,,0.00,WeatherTracker,2013-10-27 09:25:00,
2013-10-27 02:30:00,49.4,46.9,30.09,SSE,165,0.0,8.0,91,0.00,,,0.00,WeatherTracker,2013-10-27 09:30:00,
2013-10-27 02:35:00,49.4,46.9,30.09,SSW,194,0.0,8.0,91,0.00,,,0.00,WeatherTracker,2013-10-27 09:35:00,
2013-10-27 02:40:00,49.4,46.9,30.11,SSW,200,0.0,8.0,91,0.00,,,0.00,WeatherTracker,2013-10-27 09:40:00,
2013-10-27 02:45:00,49.4,46.9,30.10,SSW,200,0.0,4.0,91,0.00,,,0.00,WeatherTracker,2013-10-27 09:45:00,
2013-10-27 02:50:00,49.4,46.9,30.09,South,180,2.0,3.0,91,0.00,,,0.00,WeatherTracker,2013-10-27 09:50:00,
2013-10-27 02:55:00,49.4,46.9,30.09,South,186,0.0,7.0,91,0.00,,,0.00,WeatherTracker,2013-10-27 09:55:00,
2013-10-27 03:00:00,49.5,47.0,30.09,South,184,0.0,7.0,91,0.00,,,0.00,WeatherTracker,2013-10-27 10:00:00,
2013-10-27 03:05:00,49.5,47.0,30.08,South,184,1.0,4.0,91,0.00,,,0.00,WeatherTracker,2013-10-27 10:05:00,
2013-10-27 03:10:00,49.5,47.0,30.09,South,186,1.0,3.0,91,0.00,,,0.00,WeatherTracker,2013-10-27 10:10:00,
2013-10-27 03:15:00,49.4,46.9,30.08,South,182,0.0,5.0,91,0.00,,,0.00,WeatherTracker,2013-10-27 10:15:00,
2013-10-27 03:20:00,49.4,46.9,30.08,SSW,202,0.0,5.0,91,0.00,,,0.00,WeatherTracker,2013-10-27 10:20:00,
2013-10-27 03:25:00,49.4,46.9,30.08,SW,215,0.0,5.0,91,0.00,,,0.00,WeatherTracker,2013-10-27 10:25:00,
2013-10-27 03:30:00,49.4,46.9,30.07,SSW,206,6.0,6.0,91,0.00,,,0.00,WeatherTracker,2013-10-27 10:30:00,
2013-10-27 03:35:00,49.4,46.9,30.07,SSW,199,3.0,8.0,91,0.00,,,0.00,WeatherTracker,2013-10-27 10:35:00,
2013-10-27 03:41:00,49.4,46.9,30.07,SSW,201,1.0,8.0,91,0.00,,,0.00,WeatherTracker,2013-10-27 10:41:00,
2013-10-27 03:46:00,49.5,47.3,30.06,South,173,0.0,5.0,92,0.00,,,0.00,WeatherTracker,2013-10-27 10:46:00,
2013-10-27 03:51:00,49.4,47.2,30.05,South,182,0.0,7.0,92,0.00,,,0.00,WeatherTracker,2013-10-27 10:51:00,
2013-10-27 03:56:00,49.5,47.3,30.05,SSW,202,3.0,8.0,92,0.00,,,0.00,WeatherTracker,2013-10-27 10:56:00,
2013-10-27 04:01:00,49.5,47.3,30.05,SSE,164,0.0,8.0,92,0.00,,,0.00,WeatherTracker,2013-10-27 11:01:00,
2013-10-27 04:06:00,49.5,47.3,30.05,South,177,0.0,6.0,92,0.00,,,0.00,WeatherTracker,2013-10-27 11:06:00,
2013-10-27 04:11:00,49.5,47.3,30.04,South,169,0.0,6.0,92,0.00,,,0.00,WeatherTracker,2013-10-27 11:11:00,
2013-10-27 04:16:00,49.5,47.3,30.04,South,180,0.0,6.0,92,0.00,,,0.00,WeatherTracker,2013-10-27 11:16:00,
2013-10-27 04:21:00,49.4,47.5,30.04,South,180,0.0,6.0,93,0.00,,,0.00,WeatherTracker,2013-10-27 11:21:00,
2013-10-27 04:26:00,49.5,47.6,30.04,SSW,208,0.0,5.0,93,0.00,,,0.00,WeatherTracker,2013-10-27 11:26:00,
2013-10-27 04:31:00,49.4,47.5,30.04,SSW,209,0.0,4.0,93,0.00,,,0.00,WeatherTracker,2013-10-27 11:31:00,
2013-10-27 04:36:00,49.4,47.5,30.04,SSW,209,0.0,3.0,93,0.00,,,0.00,WeatherTracker,2013-10-27 11:36:00,
2013-10-27 04:41:00,49.4,47.5,30.03,South,190,0.0,2.0,93,0.00,,,0.00,WeatherTracker,2013-10-27 11:41:00,
2013-10-27 04:46:00,49.4,47.5,30.03,South,190,1.0,2.0,93,0.00,,,0.00,WeatherTracker,2013-10-27 11:46:00,
2013-10-27 04:51:00,49.3,47.1,30.01,SE,146,1.0,4.0,92,0.00,,,0.00,WeatherTracker,2013-10-27 11:51:00,
2013-10-27 04:56:00,49.2,47.0,30.01,SE,143,2.0,4.0,92,0.00,,,0.00,WeatherTracker,2013-10-27 11:56:00,
2013-10-27 05:01:00,49.0,46.5,30.00,SE,146,0.0,5.0,91,0.00,,,0.00,WeatherTracker,2013-10-27 12:01:00,
2013-10-27 05:06:00,48.9,46.4,30.01,SE,145,0.0,6.0,91,0.00,,,0.00,WeatherTracker,2013-10-27 12:06:00,
2013-10-27 05:11:00,48.7,46.5,30.00,SSE,162,2.0,7.0,92,0.00,,,0.00,WeatherTracker,2013-10-27 12:11:00,
2013-10-27 05:16:00,48.6,46.4,30.00,SE,132,1.0,7.0,92,0.00,,,0.00,WeatherTracker,2013-10-27 12:16:00,
2013-10-27 05:21:00,48.5,46.3,29.99,ESE,103,0.0,6.0,92,0.00,,,0.00,WeatherTracker,2013-10-27 12:21:00,
2013-10-27 05:26:00,48.3,46.1,30.00,SE,138,5.0,7.0,92,0.00,,,0.00,WeatherTracker,2013-10-27 12:26:00,
2013-10-27 05:31:00,48.1,46.2,29.99,SE,144,0.0,7.0,93,0.00,,,0.00,WeatherTracker,2013-10-27 12:31:00,
2013-10-27 05:32:00,48.1,46.2,29.99,SE,134,0.0,7.0,93,0.00,,,0.00,WeatherTracker,2013-10-27 12:32:00,
2013-10-27 05:37:00,47.9,46.0,29.99,SSE,160,2.0,7.0,93,0.00,,,0.00,WeatherTracker,2013-10-27 12:37:00,
2013-10-27 05:42:00,47.8,46.2,29.98,SE,141,1.0,5.0,94,0.00,,,0.00,WeatherTracker,2013-10-27 12:42:00,
2013-10-27 05:47:00,47.8,46.2,29.98,SE,141,0.0,5.0,94,0.01,,,0.01,WeatherTracker,2013-10-27 12:47:00,
2013-10-27 05:52:00,47.7,46.3,29.98,SE,133,0.0,5.0,95,0.01,,,0.01,WeatherTracker,2013-10-27 12:52:00,
2013-10-27 05:57:00,47.6,46.2,29.98,SSE,157,2.0,6.0,95,0.01,,,0.01,WeatherTracker,2013-10-27 12:57:00,
2013-10-27 06:02:00,47.4,46.0,29.99,SSE,150,0.0,6.0,95,0.01,,,0.01,WeatherTracker,2013-10-27 13:02:00,
2013-10-27 06:07:00,47.4,46.0,30.00,SE,132,0.0,4.0,95,0.01,,,0.01,WeatherTracker,2013-10-27 13:07:00,
2013-10-27 06:12:00,47.3,45.9,30.00,SE,130,0.0,4.0,95,0.01,,,0.01,WeatherTracker,2013-10-27 13:12:00,
2013-10-27 06:17:00,47.3,45.9,30.00,ESE,121,0.0,1.0,95,0.01,,,0.01,WeatherTracker,2013-10-27 13:17:00,
2013-10-27 06:22:00,47.3,46.2,30.00,East,87,0.0,2.0,96,0.01,,,0.01,WeatherTracker,2013-10-27 13:22:00,
2013-10-27 06:27:00,47.3,46.2,30.00,East,92,0.0,2.0,96,0.01,,,0.01,WeatherTracker,2013-10-27 13:27:00,
2013-10-27 06:32:00,47.3,46.2,30.00,East,93,0.0,2.0,96,0.02,,,0.02,WeatherTracker,2013-10-27 13:32:00,
2013-10-27 06:37:00,47.3,46.2,29.99,East,98,0.0,4.0,96,0.02,,,0.02,WeatherTracker,2013-10-27 13:37:00,
2013-10-27 06:42:00,47.2,46.1,29.99,East,98,0.0,4.0,96,0.02,,,0.02,WeatherTracker,2013-10-27 13:42:00,
2013-10-27 06:47:00,47.2,46.1,29.98,East,98,0.0,1.0,96,0.01,,,0.02,WeatherTracker,2013-10-27 13:47:00,
2013-10-27 06:52:00,47.2,46.1,29.98,East,98,0.0,1.0,96,0.01,,,0.02,WeatherTracker,2013-10-27 13:52:00,
2013-10-27 06:57:00,47.1,46.0,29.97,SE,145,5.0,5.0,96,0.01,,,0.02,WeatherTracker,2013-10-27 13:57:00,
2013-10-27 07:02:00,47.1,46.0,29.97,South,186,3.0,5.0,96,0.02,,,0.03,WeatherTracker,2013-10-27 14:02:00,
2013-10-27 07:07:00,47.0,46.2,29.97,SSE,157,0.0,8.0,97,0.02,,,0.03,WeatherTracker,2013-10-27 14:07:00,
2013-10-27 07:12:00,47.0,46.2,29.96,SSE,163,2.0,8.0,97,0.02,,,0.03,WeatherTracker,2013-10-27 14:12:00,
2013-10-27 07:17:00,47.0,46.2,29.97,SSE,163,0.0,5.0,97,0.02,,,0.03,WeatherTracker,2013-10-27 14:17:00,
2013-10-27 07:22:00,47.0,46.2,29.96,SSE,163,0.0,2.0,97,0.02,,,0.03,WeatherTracker,2013-10-27 14:22:00,
2013-10-27 07:28:00,47.0,46.2,29.97,SSE,163,0.0,0.0,97,0.03,,,0.04,WeatherTracker,2013-10-27 14:28:00,
2013-10-27 07:33:00,47.0,46.2,29.96,SSE,163,0.0,1.0,97,0.03,,,0.05,WeatherTracker,2013-10-27 14:33:00,
2013-10-27 07:38:00,47.1,46.3,29.96,SSE,163,0.0,1.0,97,0.03,,,0.05,WeatherTracker,2013-10-27 14:38:00,
2013-10-27 07:43:00,47.1,46.3,29.96,SSE,163,0.0,0.0,97,0.04,,,0.06,WeatherTracker,2013-10-27 14:43:00,
2013-10-27 07:48:00,47.0,46.2,29.96,SSE,163,0.0,1.0,97,0.04,,,0.06,WeatherTracker,2013-10-27 14:48:00,
2013-10-27 07:53:00,47.0,46.2,29.96,SSE,163,0.0,1.0,97,0.04,,,0.06,WeatherTracker,2013-10-27 14:53:00,
2013-10-27 07:58:00,46.9,46.1,29.96,SSE,163,0.0,1.0,97,0.05,,,0.07,WeatherTracker,2013-10-27 14:58:00,
2013-10-27 08:03:00,46.9,46.1,29.96,SSE,163,0.0,0.0,97,0.05,,,0.07,WeatherTracker,2013-10-27 15:03:00,
2013-10-27 08:08:00,46.9,46.1,29.95,SSE,163,0.0,0.0,97,0.05,,,0.07,WeatherTracker,2013-10-27 15:08:00,
2013-10-27 08:13:00,46.9,46.1,29.95,SSE,163,0.0,1.0,97,0.06,,,0.08,WeatherTracker,2013-10-27 15:13:00,
2013-10-27 08:18:00,46.8,46.0,29.95,SE,142,4.0,4.0,97,0.05,,,0.08,WeatherTracker,2013-10-27 15:18:00,
2013-10-27 08:23:00,46.8,46.0,29.95,SE,133,4.0,6.0,97,0.05,,,0.08,WeatherTracker,2013-10-27 15:23:00,
2013-10-27 08:28:00,46.8,46.0,29.94,SE,132,2.0,6.0,97,0.06,,,0.09,WeatherTracker,2013-10-27 15:28:00,
2013-10-27 08:33:00,46.8,46.0,29.94,SSE,159,0.0,6.0,97,0.05,,,0.09,WeatherTracker,2013-10-27 15:33:00,
2013-10-27 08:38:00,46.8,46.0,29.94,SSE,159,0.0,6.0,97,0.05,,,0.09,WeatherTracker,2013-10-27 15:38:00,
2013-10-27 08:43:00,46.9,46.1,29.94,SSE,159,0.0,4.0,97,0.05,,,0.09,WeatherTracker,2013-10-27 15:43:00,
2013-10-27 08:48:00,46.9,46.1,29.94,SSE,159,0.0,1.0,97,0.03,,,0.09,WeatherTracker,2013-10-27 15:48:00,
2013-10-27 08:53:00,47.0,46.2,29.94,SSE,159,0.0,1.0,97,0.03,,,0.09,WeatherTracker,2013-10-27 15:53:00,
2013-10-27 08:58:00,47.1,46.3,29.93,SSE,159,0.0,1.0,97,0.02,,,0.09,WeatherTracker,2013-10-27 15:58:00,
2013-10-27 09:03:00,47.2,46.4,29.93,SSE,159,0.0,1.0,97,0.02,,,0.09,WeatherTracker,2013-10-27 16:03:00,
2013-10-27 09:08:00,47.3,46.8,29.93,SSE,159,0.0,1.0,98,0.02,,,0.09,WeatherTracker,2013-10-27 16:08:00,
2013-10-27 09:13:00,47.4,46.9,29.93,SSE,159,0.0,0.0,98,0.02,,,0.09,WeatherTracker,2013-10-27 16:13:00,
2013-10-27 09:18:00,47.4,46.9,29.94,SSE,159,0.0,0.0,98,0.01,,,0.09,WeatherTracker,2013-10-27 16:18:00,
2013-10-27 09:23:00,47.4,46.9,29.94,SSE,159,0.0,0.0,98,0.01,,,0.09,WeatherTracker,2013-10-27 16:23:00,
2013-10-27 09:28:00,47.4,46.9,29.94,SSE,159,0.0,0.0,98,0.01,,,0.09,WeatherTracker,2013-10-27 16:28:00,
2013-10-27 09:34:00,47.4,46.9,29.94,SSE,159,0.0,1.0,98,0.01,,,0.10,WeatherTracker,2013-10-27 16:34:00,
2013-10-27 09:39:00,47.3,46.5,29.94,SSE,159,0.0,1.0,97,0.02,,,0.11,WeatherTracker,2013-10-27 16:39:00,
2013-10-27 09:44:00,47.2,46.4,29.94,SSE,159,0.0,0.0,97,0.02,,,0.11,WeatherTracker,2013-10-27 16:44:00,
2013-10-27 09:49:00,47.1,46.3,29.94,SSE,159,0.0,0.0,97,0.03,,,0.12,WeatherTracker,2013-10-27 16:49:00,
2013-10-27 09:54:00,47.1,46.3,29.94,SSE,159,0.0,1.0,97,0.03,,,0.12,WeatherTracker,2013-10-27 16:54:00,
2013-10-27 09:59:00,47.1,46.3,29.94,SSE,159,0.0,1.0,97,0.03,,,0.12,WeatherTracker,2013-10-27 16:59:00,
2013-10-27 10:04:00,47.2,46.4,29.94,SSE,159,0.0,1.0,97,0.03,,,0.12,WeatherTracker,2013-10-27 17:04:00,
2013-10-27 10:09:00,47.3,46.8,29.94,SSE,159,0.0,0.0,98,0.03,,,0.12,WeatherTracker,2013-10-27 17:09:00,
2013-10-27 10:14:00,47.4,46.9,29.94,SSE,159,0.0,0.0,98,0.03,,,0.12,WeatherTracker,2013-10-27 17:14:00,
2013-10-27 10:19:00,47.5,47.0,29.94,SSE,159,0.0,0.0,98,0.03,,,0.12,WeatherTracker,2013-10-27 17:19:00,
2013-10-27 10:24:00,47.5,47.0,29.94,SSE,159,0.0,0.0,98,0.04,,,0.13,WeatherTracker,2013-10-27 17:24:00,
2013-10-27 10:29:00,47.5,47.0,29.94,SSE,159,0.0,0.0,98,0.04,,,0.13,WeatherTracker,2013-10-27 17:29:00,
2013-10-27 10:34:00,47.5,47.0,29.94,SSE,159,0.0,0.0,98,0.04,,,0.13,WeatherTracker,2013-10-27 17:34:00,
2013-10-27 10:39:00,47.5,47.0,29.94,NW,318,0.0,1.0,98,0.05,,,0.14,WeatherTracker,2013-10-27 17:39:00,
2013-10-27 10:44:00,47.6,47.1,29.94,North,355,0.0,5.0,98,0.05,,,0.14,WeatherTracker,2013-10-27 17:44:00,
2013-10-27 10:49:00,47.7,47.2,29.94,NW,324,0.0,5.0,98,0.03,,,0.14,WeatherTracker,2013-10-27 17:49:00,
2013-10-27 10:54:00,47.8,47.3,29.94,NW,313,0.0,5.0,98,0.04,,,0.15,WeatherTracker,2013-10-27 17:54:00,
2013-10-27 10:59:00,48.0,47.5,29.95,North,351,0.0,5.0,98,0.04,,,0.15,WeatherTracker,2013-10-27 17:59:00,
2013-10-27 11:04:00,48.2,47.7,29.94,NNW,339,2.0,5.0,98,0.03,,,0.15,WeatherTracker,2013-10-27 18:04:00,
2013-10-27 11:09:00,48.6,48.1,29.94,North,355,6.0,7.0,98,0.03,,,0.15,WeatherTracker,2013-10-27 18:09:00,
2013-10-27 11:14:00,48.9,48.4,29.94,NW,305,4.0,13.0,98,0.03,,,0.15,WeatherTracker,2013-10-27 18:14:00,
2013-10-27 11:19:00,49.1,48.6,29.94,NNW,345,1.0,13.0,98,0.03,,,0.15,WeatherTracker,2013-10-27 18:19:00,
2013-10-27 11:24:00,49.4,48.9,29.93,NNW,344,0.0,15.0,98,0.03,,,0.15,WeatherTracker,2013-10-27 18:24:00,
2013-10-27 11:29:00,49.5,48.7,29.93,NNE,15,10.0,15.0,97,0.03,,,0.15,WeatherTracker,2013-10-27 18:29:00,
2013-10-27 11:34:00,49.7,48.9,29.93,North,360,7.0,19.0,97,0.02,,,0.15,WeatherTracker,2013-10-27 18:34:00,
2013-10-27 11:39:00,49.9,48.8,29.93,NE,42,7.0,20.0,96,0.01,,,0.15,WeatherTracker,2013-10-27 18:39:00,
2013-10-27 11:44:00,50.2,49.1,29.93,NNW,336,8.0,20.0,96,0.01,,,0.15,WeatherTracker,2013-10-27 18:44:00,
2013-10-27 11:49:00,50.4,49.3,29.93,NW,314,11.0,17.0,96,0.01,,,0.15,WeatherTracker,2013-10-27 18:49:00,
2013-10-27 11:55:00,50.6,49.2,29.93,NNW,329,9.0,24.0,95,0.00,,,0.15,WeatherTracker,2013-10-27 18:55:00,
2013-10-27 12:00:00,50.9,49.5,29.93,NNE,29,2.0,18.0,95,0.00,,,0.15,WeatherTracker,2013-10-27 19:00:00,
2013-10-27 12:05:00,50.8,49.1,29.93,NNE,14,3.0,14.0,94,0.00,,,0.15,WeatherTracker,2013-10-27 19:05:00,
2013-10-27 12:10:00,50.8,49.1,29.93,NNE,12,4.0,17.0,94,0.00,,,0.15,WeatherTracker,2013-10-27 19:10:00,
2013-10-27 12:15:00,50.7,49.0,29.93,North,355,8.0,17.0,94,0.00,,,0.15,WeatherTracker,2013-10-27 19:15:00,
2013-10-27 12:20:00,50.8,49.1,29.93,NNE,14,6.0,12.0,94,0.00,,,0.15,WeatherTracker,2013-10-27 19:20:00,
2013-10-27 12:25:00,50.7,49.0,29.93,WNW,297,7.0,11.0,94,0.00,,,0.15,WeatherTracker,2013-10-27 19:25:00,
2013-10-27 12:30:00,50.7,49.0,29.93,NNE,18,4.0,11.0,94,0.00,,,0.15,WeatherTracker,2013-10-27 19:30:00,
2013-10-27 12:35:00,50.7,49.0,29.93,NW,325,6.0,14.0,94,0.00,,,0.15,WeatherTracker,2013-10-27 19:35:00,
2013-10-27 12:40:00,50.7,49.0,29.92,North,355,5.0,14.0,94,0.00,,,0.15,WeatherTracker,2013-10-27 19:40:00,
2013-10-27 12:45:00,50.8,49.1,29.92,WNW,302,6.0,14.0,94,0.00,,,0.15,WeatherTracker,2013-10-27 19:45:00,
2013-10-27 12:50:00,50.9,49.2,29.92,NE,34,5.0,18.0,94,0.00,,,0.15,WeatherTracker,2013-10-27 19:50:00,
2013-10-27 12:55:00,51.1,49.4,29.92,WNW,298,5.0,18.0,94,0.00,,,0.15,WeatherTracker,2013-10-27 19:55:00,
2013-10-27 13:00:00,51.3,49.3,29.92,North,355,6.0,16.0,93,0.00,,,0.15,WeatherTracker,2013-10-27 20:00:00,
2013-10-27 13:05:00,51.5,49.3,29.91,NW,319,9.0,16.0,92,0.00,,,0.15,WeatherTracker,2013-10-27 20:05:00,
2013-10-27 13:10:00,51.9,49.6,29.91,NE,38,5.0,18.0,92,0.00,,,0.15,WeatherTracker,2013-10-27 20:10:00,
2013-10-27 13:15:00,52.3,49.5,29.91,North,355,7.0,23.0,90,0.00,,,0.15,WeatherTracker,2013-10-27 20:15:00,
2013-10-27 13:20:00,52.5,49.4,29.91,NNE,16,12.0,23.0,89,0.00,,,0.15,WeatherTracker,2013-10-27 20:20:00,
2013-10-27 13:25:00,52.8,49.3,29.91,NNE,13,2.0,16.0,88,0.00,,,0.15,WeatherTracker,2013-10-27 20:25:00,
2013-10-27 13:30:00,53.1,49.3,29.91,NNW,327,8.0,17.0,87,0.00,,,0.15,WeatherTracker,2013-10-27 20:30:00,
2013-10-27 13:35:00,53.4,49.6,29.90,NW,310,1.0,17.0,87,0.00,,,0.15,WeatherTracker,2013-10-27 20:35:00,
2013-10-27 13:40:00,53.6,49.2,29.90,North,360,5.0,15.0,85,0.00,,,0.15,WeatherTracker,2013-10-27 20:40:00,
2013-10-27 13:45:00,53.8,49.7,29.90,North,5,11.0,18.0,86,0.00,,,0.15,WeatherTracker,2013-10-27 20:45:00,
2013-10-27 13:51:00,54.1,49.4,29.90,NW,325,4.0,18.0,84,0.00,,,0.15,WeatherTracker,2013-10-27 20:51:00,
2013-10-27 13:56:00,54.2,49.1,29.90,WNW,302,18.0,18.0,83,0.00,,,0.15,WeatherTracker,2013-10-27 20:56:00,
2013-10-27 14:01:00,54.2,48.8,29.89,NNW,347,10.0,18.0,82,0.00,,,0.15,WeatherTracker,2013-10-27 21:01:00,
2013-10-27 14:06:00,54.1,49.1,29.90,NNW,328,2.0,20.0,83,0.00,,,0.15,WeatherTracker,2013-10-27 21:06:00,
2013-10-27 14:11:00,54.2,49.1,29.90,NNE,30,10.0,20.0,83,0.00,,,0.15,WeatherTracker,2013-10-27 21:11:00,
2013-10-27 14:16:00,54.4,49.3,29.89,West,271,6.0,19.0,83,0.00,,,0.15,WeatherTracker,2013-10-27 21:16:00,
2013-10-27 14:21:00,54.6,49.2,29.89,NW,325,4.0,19.0,82,0.00,,,0.15,WeatherTracker,2013-10-27 21:21:00,
2013-10-27 14:26:00,54.7,49.0,29.89,West,280,6.0,19.0,81,0.00,,,0.15,WeatherTracker,2013-10-27 21:26:00,
2013-10-27 14:31:00,54.8,48.7,29.89,North,360,12.0,19.0,80,0.00,,,0.15,WeatherTracker,2013-10-27 21:31:00,
2013-10-27 14:36:00,54.9,48.8,29.89,North,5,8.0,20.0,80,0.00,,,0.15,WeatherTracker,2013-10-27 21:36:00,
2013-10-27 14:41:00,54.9,48.5,29.89,North,5,6.0,20.0,79,0.00,,,0.15,WeatherTracker,2013-10-27 21:41:00,
2013-10-27 14:46:00,55.0,48.3,29.89,SSW,192,12.0,19.0,78,0.00,,,0.15,WeatherTracker,2013-10-27 21:46:00,
2013-10-27 14:51:00,55.1,48.7,29.89,NW,309,14.0,21.0,79,0.00,,,0.15,WeatherTracker,2013-10-27 21:51:00,
2013-10-27 14:56:00,55.2,48.8,29.89,NNW,337,11.0,21.0,79,0.00,,,0.15,WeatherTracker,2013-10-27 21:56:00,
2013-10-27 15:01:00,55.4,48.7,29.89,NNW,347,4.0,20.0,78,0.00,,,0.15,WeatherTracker,2013-10-27 22:01:00,
2013-10-27 15:06:00,55.5,48.4,29.90,North,355,10.0,18.0,77,0.00,,,0.15,WeatherTracker,2013-10-27 22:06:00,
2013-10-27 15:11:00,55.6,48.2,29.89,NNW,336,5.0,18.0,76,0.00,,,0.15,WeatherTracker,2013-10-27 22:11:00,
2013-10-27 15:16:00,55.7,48.6,29.89,NNE,17,8.0,18.0,77,0.00,,,0.15,WeatherTracker,2013-10-27 22:16:00,
2013-10-27 15:21:00,55.8,48.3,29.89,North,9,5.0,18.0,76,0.00,,,0.15,WeatherTracker,2013-10-27 22:21:00,
2013-10-27 15:26:00,55.9,48.4,29.89,North,5,4.0,17.0,76,0.00,,,0.15,WeatherTracker,2013-10-27 22:26:00,
2013-10-27 15:31:00,55.9,48.4,29.89,NE,34,4.0,19.0,76,0.00,,,0.15,WeatherTracker,2013-10-27 22:31:00,
2013-10-27 15:36:00,56.1,48.6,29.89,NW,321,4.0,19.0,76,0.00,,,0.15,WeatherTracker,2013-10-27 22:36:00,
2013-10-27 15:41:00,56.2,48.4,29.89,NNE,20,3.0,16.0,75,0.00,,,0.15,WeatherTracker,2013-10-27 22:41:00,
2013-10-27 15:46:00,56.2,48.0,29.90,NNW,338,8.0,16.0,74,0.00,,,0.15,WeatherTracker,2013-10-27 22:46:00,
2013-10-27 15:52:00,56.1,47.9,29.89,NNW,348,2.0,19.0,74,0.00,,,0.15,WeatherTracker,2013-10-27 22:52:00,
2013-10-27 15:57:00,56.0,48.2,29.89,NNE,30,9.0,19.0,75,0.00,,,0.15,WeatherTracker,2013-10-27 22:57:00,
2013-10-27 16:02:00,56.0,48.2,29.89,NW,313,4.0,18.0,75,0.00,,,0.15,WeatherTracker,2013-10-27 23:02:00,
2013-10-27 16:07:00,56.0,48.2,29.89,North,11,12.0,13.0,75,0.00,,,0.15,WeatherTracker,2013-10-27 23:07:00,
2013-10-27 16:12:00,56.0,48.2,29.89,NNW,342,5.0,17.0,75,0.00,,,0.15,WeatherTracker,2013-10-27 23:12:00,
2013-10-27 16:17:00,56.1,47.9,29.89,North,351,4.0,17.0,74,0.00,,,0.15,WeatherTracker,2013-10-27 23:17:00,
2013-10-27 16:22:00,56.1,47.9,29.88,NNE,24,3.0,16.0,74,0.00,,,0.15,WeatherTracker,2013-10-27 23:22:00,
2013-10-27 16:27:00,56.1,47.9,29.89,NNE,21,10.0,16.0,74,0.00,,,0.15,WeatherTracker,2013-10-27 23:27:00,
2013-10-27 16:32:00,56.1,47.6,29.89,NE,40,3.0,16.0,73,0.00,,,0.15,WeatherTracker,2013-10-27 23:32:00,
2013-10-27 16:37:00,56.0,47.5,29.89,NNE,15,0.0,18.0,73,0.00,,,0.15,WeatherTracker,2013-10-27 23:37:00,
2013-10-27 16:42:00,56.0,47.8,29.89,NW,311,7.0,18.0,74,0.00,,,0.15,WeatherTracker,2013-10-27 23:42:00,
2013-10-27 16:47:00,55.9,47.7,29.89,ENE,57,4.0,13.0,74,0.00,,,0.15,WeatherTracker,2013-10-27 23:47:00,
2013-10-27 16:52:00,55.9,47.7,29.89,NNW,348,6.0,12.0,74,0.00,,,0.15,WeatherTracker,2013-10-27 23:52:00,
2013-10-27 16:57:00,55.9,47.4,29.89,NNW,334,7.0,11.0,73,0.00,,,0.15,WeatherTracker,2013-10-27 23:57:00,
2013-10-27 17:02:00,55.9,47.4,29.89,NNE,16,13.0,13.0,73,0.00,,,0.15,WeatherTracker,2013-10-28 00:02:00,
2013-10-27 17:07:00,55.9,47.7,29.89,NW,318,2.0,14.0,74,0.00,,,0.15,WeatherTracker,2013-10-28 00:07:00,
2013-10-27 17:12:00,55.9,47.7,29.89,NW,307,0.0,14.0,74,0.00,,,0.15,WeatherTracker,2013-10-28 00:12:00,
2013-10-27 17:18:00,55.8,47.6,29.89,NE,34,6.0,14.0,74,0.00,,,0.15,WeatherTracker,2013-10-28 00:18:00,
2013-10-27 17:23:00,55.8,47.6,29.89,WNW,286,4.0,14.0,74,0.00,,,0.15,WeatherTracker,2013-10-28 00:23:00,
2013-10-27 17:28:00,55.7,47.2,29.89,North,355,0.0,13.0,73,0.00,,,0.15,WeatherTracker,2013-10-28 00:28:00,
2013-10-27 17:33:00,55.7,46.8,29.89,NNW,330,4.0,18.0,72,0.00,,,0.15,WeatherTracker,2013-10-28 00:33:00,
2013-10-27 17:38:00,55.7,46.8,29.89,North,355,2.0,18.0,72,0.00,,,0.15,WeatherTracker,2013-10-28 00:38:00,
2013-10-27 17:43:00,55.5,46.3,29.89,NNW,330,10.0,10.0,71,0.00,,,0.15,WeatherTracker,2013-10-28 00:43:00,
2013-10-27 17:48:00,55.5,46.3,29.89,NW,322,5.0,14.0,71,0.00,,,0.15,WeatherTracker,2013-10-28 00:48:00,
2013-10-27 17:53:00,55.4,46.5,29.89,NW,325,5.0,14.0,72,0.00,,,0.15,WeatherTracker,2013-10-28 00:53:00,
2013-10-27 17:58:00,55.4,46.2,29.89,West,267,0.0,13.0,71,0.00,,,0.15,WeatherTracker,2013-10-28 00:58:00,
2013-10-27 18:03:00,55.3,46.4,29.89,NW,304,6.0,13.0,72,0.00,,,0.15,WeatherTracker,2013-10-28 01:03:00,
2013-10-27 18:08:00,55.3,46.4,29.90,NE,35,3.0,13.0,72,0.00,,,0.15,WeatherTracker,2013-10-28 01:08:00,
2013-10-27 18:13:00,55.3,46.4,29.90,North,355,5.0,13.0,72,0.00,,,0.15,WeatherTracker,2013-10-28 01:13:00,
2013-10-27 18:18:00,55.2,46.3,29.90,NW,321,9.0,13.0,72,0.00,,,0.15,WeatherTracker,2013-10-28 01:18:00,
2013-10-27 18:23:00,55.1,46.2,29.90,North,360,3.0,13.0,72,0.00,,,0.15,WeatherTracker,2013-10-28 01:23:00,
2013-10-27 18:28:00,55.0,46.1,29.90,NE,35,10.0,13.0,72,0.00,,,0.15,WeatherTracker,2013-10-28 01:28:00,
2013-10-27 18:33:00,55.1,46.2,29.90,NNE,31,0.0,16.0,72,0.00,,,0.15,WeatherTracker,2013-10-28 01:33:00,
2013-10-27 18:38:00,55.1,46.2,29.90,North,355,6.0,16.0,72,0.00,,,0.15,WeatherTracker,2013-10-28 01:38:00,
2013-10-27 18:43:00,55.1,46.6,29.90,NW,323,5.0,14.0,73,0.00,,,0.15,WeatherTracker,2013-10-28 01:43:00,
2013-10-27 18:48:00,55.0,46.5,29.90,North,5,2.0,12.0,73,0.00,,,0.15,WeatherTracker,2013-10-28 01:48:00,
2013-10-27 18:54:00,55.0,46.5,29.90,WNW,296,4.0,13.0,73,0.00,,,0.15,WeatherTracker,2013-10-28 01:54:00,
2013-10-27 18:59:00,55.0,46.1,29.90,NW,325,5.0,13.0,72,0.00,,,0.15,WeatherTracker,2013-10-28 01:59:00,
2013-10-27 19:04:00,55.1,46.2,29.90,NNE,26,2.0,14.0,72,0.00,,,0.15,WeatherTracker,2013-10-28 02:04:00,
2013-10-27 19:09:00,55.1,46.6,29.90,NNE,17,1.0,14.0,73,0.00,,,0.15,WeatherTracker,2013-10-28 02:09:00,
2013-10-27 19:14:00,55.0,46.5,29.90,North,360,3.0,13.0,73,0.00,,,0.15,WeatherTracker,2013-10-28 02:14:00,
2013-10-27 19:19:00,55.0,46.5,29.90,NNW,340,5.0,10.0,73,0.00,,,0.15,WeatherTracker,2013-10-28 02:19:00,
2013-10-27 19:24:00,55.0,46.5,29.90,NNE,32,3.0,11.0,73,0.00,,,0.15,WeatherTracker,2013-10-28 02:24:00,
2013-10-27 19:29:00,55.0,46.5,29.90,NNW,340,0.0,12.0,73,0.00,,,0.15,WeatherTracker,2013-10-28 02:29:00,
2013-10-27 19:34:00,54.9,46.0,29.90,North,355,2.0,12.0,72,0.00,,,0.15,WeatherTracker,2013-10-28 02:34:00,
2013-10-27 19:39:00,55.0,46.1,29.91,NNE,20,4.0,12.0,72,0.00,,,0.15,WeatherTracker,2013-10-28 02:39:00,
2013-10-27 19:44:00,55.1,46.2,29.91,NNE,20,2.0,12.0,72,0.00,,,0.15,WeatherTracker,2013-10-28 02:44:00,
2013-10-27 19:49:00,55.1,46.2,29.90,NNW,347,0.0,9.0,72,0.00,,,0.15,WeatherTracker,2013-10-28 02:49:00,
2013-10-27 19:54:00,55.1,45.9,29.90,NNW,329,6.0,12.0,71,0.00,,,0.15,WeatherTracker,2013-10-28 02:54:00,
2013-10-27 19:59:00,55.1,45.9,29.90,NE,40,5.0,12.0,71,0.00,,,0.15,WeatherTracker,2013-10-28 02:59:00,
2013-10-27 20:04:00,55.0,45.8,29.90,NNE,17,6.0,12.0,71,0.00,,,0.15,WeatherTracker,2013-10-28 03:04:00,
2013-10-27 20:09:00,55.0,46.9,29.90,NNE,29,4.0,13.0,74,0.00,,,0.15,WeatherTracker,2013-10-28 03:09:00,
2013-10-27 20:14:00,54.7,47.3,29.90,North,5,1.0,13.0,76,0.00,,,0.15,WeatherTracker,2013-10-28 03:14:00,
2013-10-27 20:19:00,54.4,47.3,29.90,NE,36,3.0,11.0,77,0.00,,,0.15,WeatherTracker,2013-10-28 03:19:00,
2013-10-27 20:24:00,54.2,47.1,29.90,NNW,329,2.0,12.0,77,0.00,,,0.15,WeatherTracker,2013-10-28 03:24:00,
2013-10-27 20:29:00,54.2,47.1,29.91,ENE,71,5.0,13.0,77,0.00,,,0.15,WeatherTracker,2013-10-28 03:29:00,
2013-10-27 20:34:00,54.1,47.4,29.90,NNW,344,1.0,13.0,78,0.00,,,0.15,WeatherTracker,2013-10-28 03:34:00,
2013-10-27 20:39:00,54.1,47.4,29.91,NNE,20,4.0,11.0,78,0.00,,,0.15,WeatherTracker,2013-10-28 03:39:00,
2013-10-27 20:44:00,54.1,47.1,29.91,NNE,28,3.0,9.0,77,0.00,,,0.15,WeatherTracker,2013-10-28 03:44:00,
2013-10-27 20:49:00,54.1,47.4,29.91,ENE,61,6.0,13.0,78,0.00,,,0.15,WeatherTracker,2013-10-28 03:49:00,
2013-10-27 20:54:00,54.1,47.1,29.91,North,11,0.0,13.0,77,0.00,,,0.15,WeatherTracker,2013-10-28 03:54:00,
2013-10-27 20:59:00,54.0,47.3,29.91,North,5,2.0,11.0,78,0.00,,,0.15,WeatherTracker,2013-10-28 03:59:00,
2013-10-27 21:01:00,54.0,47.3,29.91,NNW,327,8.0,8.0,78,0.00,,,0.15,WeatherTracker,2013-10-28 04:01:00,
2013-10-27 21:06:00,53.9,46.9,29.91,NE,50,2.0,9.0,77,0.00,,,0.15,WeatherTracker,2013-10-28 04:06:00,
2013-10-27 21:11:00,53.7,47.0,29.91,NE,47,1.0,9.0,78,0.00,,,0.15,WeatherTracker,2013-10-28 04:11:00,
2013-10-27 21:16:00,53.7,47.0,29.91,NNE,13,1.0,8.0,78,0.00,,,0.15,WeatherTracker,2013-10-28 04:16:00,
2013-10-27 21:21:00,53.7,46.7,29.91,North,360,0.0,11.0,77,0.00,,,0.15,WeatherTracker,2013-10-28 04:21:00,
2013-10-27 21:27:00,53.7,46.0,29.91,NNE,12,6.0,11.0,75,0.00,,,0.15,WeatherTracker,2013-10-28 04:27:00,
2013-10-27 21:32:00,53.9,45.8,29.91,NNW,345,2.0,14.0,74,0.00,,,0.15,WeatherTracker,2013-10-28 04:32:00,
2013-10-27 21:37:00,53.9,45.4,29.91,NNE,23,2.0,14.0,73,0.00,,,0.15,WeatherTracker,2013-10-28 04:37:00,
2013-10-27 21:42:00,53.9,45.1,29.91,NE,49,5.0,11.0,72,0.00,,,0.15,WeatherTracker,2013-10-28 04:42:00,
2013-10-27 21:47:00,53.9,44.7,29.91,NNE,30,5.0,11.0,71,0.00,,,0.15,WeatherTracker,2013-10-28 04:47:00,
2013-10-27 21:52:00,53.8,44.6,29.91,NE,35,0.0,8.0,71,0.00,,,0.15,WeatherTracker,2013-10-28 04:52:00,
2013-10-27 21:57:00,53.6,44.4,29.91,North,360,2.0,7.0,71,0.00,,,0.15,WeatherTracker,2013-10-28 04:57:00,
2013-10-27 22:02:00,53.4,44.6,29.91,NNE,19,1.0,6.0,72,0.00,,,0.15,WeatherTracker,2013-10-28 05:02:00,
2013-10-27 22:07:00,53.0,44.2,29.91,NNE,22,1.0,5.0,72,0.00,,,0.15,WeatherTracker,2013-10-28 05:07:00,
2013-10-27 22:12:00,52.7,44.3,29.91,NNE,28,0.0,4.0,73,0.00,,,0.15,WeatherTracker,2013-10-28 05:12:00,
2013-10-27 22:17:00,52.4,44.4,29.91,NNE,16,0.0,5.0,74,0.00,,,0.15,WeatherTracker,2013-10-28 05:17:00,
2013-10-27 22:22:00,52.0,44.3,29.91,NNE,16,0.0,5.0,75,0.00,,,0.15,WeatherTracker,2013-10-28 05:22:00,
2013-10-27 22:27:00,51.7,44.4,29.91,North,5,0.0,1.0,76,0.00,,,0.15,WeatherTracker,2013-10-28 05:27:00,
2013-10-27 22:32:00,51.3,44.3,29.91,NNE,13,0.0,1.0,77,0.00,,,0.15,WeatherTracker,2013-10-28 05:32:00,
2013-10-27 22:37:00,51.0,44.0,29.91,NE,44,0.0,1.0,77,0.00,,,0.15,WeatherTracker,2013-10-28 05:37:00,
2013-10-27 22:43:00,51.0,44.0,29.91,NNE,26,3.0,5.0,77,0.00,,,0.15,WeatherTracker,2013-10-28 05:43:00,
2013-10-27 22:48:00,51.2,44.2,29.91,NNE,22,0.0,5.0,77,0.00,,,0.15,WeatherTracker,2013-10-28 05:48:00,
2013-10-27 22:53:00,51.1,44.1,29.91,NNE,22,0.0,4.0,77,0.00,,,0.15,WeatherTracker,2013-10-28 05:53:00,
2013-10-27 22:58:00,50.8,44.2,29.91,NNE,22,0.0,3.0,78,0.00,,,0.15,WeatherTracker,2013-10-28 05:58:00,
2013-10-27 23:03:00,50.4,44.1,29.91,NNE,22,0.0,1.0,79,0.00,,,0.15,WeatherTracker,2013-10-28 06:03:00,
2013-10-27 23:08:00,50.0,44.4,29.91,NNE,19,0.0,2.0,81,0.00,,,0.15,WeatherTracker,2013-10-28 06:08:00,
2013-10-27 23:13:00,49.8,44.2,29.91,NE,41,4.0,4.0,81,0.00,,,0.15,WeatherTracker,2013-10-28 06:13:00,
2013-10-27 23:18:00,49.8,44.2,29.90,NE,43,3.0,6.0,81,0.00,,,0.15,WeatherTracker,2013-10-28 06:18:00,
2013-10-27 23:23:00,50.0,44.1,29.90,NE,37,0.0,6.0,80,0.00,,,0.15,WeatherTracker,2013-10-28 06:23:00,
2013-10-27 23:28:00,50.3,44.0,29.91,NE,42,1.0,5.0,79,0.00,,,0.15,WeatherTracker,2013-10-28 06:28:00,
2013-10-27 23:33:00,50.5,43.6,29.91,NNE,32,0.0,6.0,77,0.00,,,0.15,WeatherTracker,2013-10-28 06:33:00,
2013-10-27 23:38:00,50.8,43.5,29.91,NNE,17,0.0,6.0,76,0.00,,,0.15,WeatherTracker,2013-10-28 06:38:00,
2013-10-27 23:43:00,51.0,43.7,29.91,NNE,26,1.0,8.0,76,0.00,,,0.15,WeatherTracker,2013-10-28 06:43:00,
2013-10-27 23:48:00,51.3,43.6,29.91,NNE,23,4.0,8.0,75,0.00,,,0.15,WeatherTracker,2013-10-28 06:48:00,
2013-10-27 23:53:00,51.5,43.5,29.91,NNE,18,2.0,7.0,74,0.00,,,0.15,WeatherTracker,2013-10-28 06:53:00,
2013-10-27 23:58:00,51.7,43.3,29.91,North,9,0.0,6.0,73,0.00,,,0.15,WeatherTracker,2013-10-28 06:58:00,